Location: Treviso
(45.6669°N, 12.2430°E)
Time: 16:25:03
(UTC+02:00)

ISS - Pass Details

Date: 22 May 2018
Orbit: 402 x 406 km, 51.6° (Epoch: 19 June)

Event Time Altitude Azimuth Distance (km) Brightness Sun altitude
Rises 01:24:37 0° 290° (WNW) 2,320 0.2 -23.9°
Reaches altitude 10° 01:26:53 10° 302° (WNW) 1,460 -0.7 -23.9°
Maximum altitude 01:29:46 28° 4° (N) 802 -1.7 -23.8°
Drops below altitude 10° 01:32:38 10° 65° (ENE) 1,458 -0.7 -23.8°
Sets 01:34:54 0° 78° (ENE) 2,317 0.3 -23.7°
